Regional Weather Roundup
Issued by NWS

Home | Current Version | Previous Version | Graphics & Text | Print | Product List | Glossary On
Versions: 1 2 3 4 5 6 7 8 9 10 11 12 13 14 15 16 17 18 19 20 21 22 23 24 25 26 27 28 29 30 31 32 33 34 35 36 37 38 39 40 41 42 43 44 45 46 47 48 49 50
000
ASUS43 KBIS 192310
RWRND

NORTH DAKOTA REGIONAL WEATHER ROUNDUP
NATIONAL WEATHER SERVICE BISMARCK ND
500 PM CST FRI JAN 19 2018

NOTE: "FAIR" INDICATES FEW OR NO CLOUDS BELOW 12,000 FEET WITH NO
SIGNIFICANT WEATHER AND/OR OBSTRUCTIONS TO VISIBILITY.


NDZ001>003-009>011-017-200000-
NORTHWEST NORTH DAKOTA

CITY           SKY/WX    TMP DP  RH WIND       PRES   REMARKS
WILLISTON      MOCLDY    37  28  70 W15       29.63R
MINOT          CLEAR     39  28  64 W13       29.57R
MINOT AFB      CLEAR     38  29  72 W9        29.55S
$$

NDZ018>021-031>035-040>046-200000-
SOUTHWEST NORTH DAKOTA

CITY           SKY/WX    TMP DP  RH WIND       PRES   REMARKS
BISMARCK       MOCLDY    41  32  70 W7        29.63S
DICKINSON      CLOUDY    36  32  85 W16       29.62R
GARRISON         N/A     37  30  75 NW7       29.61R
HETTINGER ARPT MOCLDY    37  32  82 W9        29.68R
$$

NDZ004>008-012>016-024-026-027-054-200000-
NORTHEAST NORTH DAKOTA

CITY           SKY/WX    TMP DP  RH WIND       PRES   REMARKS
GRAND FORKS    MOCLDY    37  32  82 W5        29.54R
GRND FRKS AFB  FAIR      38  31  77 N3        29.54R
DEVILS LAKE    FAIR      36  29  75 W14       29.56R
$$

NDZ022-023-025-028>030-036>039-047>053-200000-
SOUTHEAST NORTH DAKOTA

CITY           SKY/WX    TMP DP  RH WIND       PRES   REMARKS
FARGO          FAIR      35  31  85 W3        29.56R
JAMESTOWN      CLEAR     39  31  72 W8        29.59R
$$





USA.gov is the U.S. government's official web portal to all federal, state and local government web resources and services.